Location: Brahman Valley
(40.6513°N, 111.8855°W)
Time: 12:10:13
(UTC+00:00)

Vanguard 2 - Pass Details

Date: 15 May 2021
Orbit: 552 x 2937 km, 32.9° (Epoch: 14 June)

Event Time Altitude Azimuth Distance (km) Brightness Sun altitude
Rises 18:59:13 0° 277° (W) 6,157 12.1 67.8°
Reaches altitude 10° 19:03:58 10° 266° (W) 5,406 11.9 68.0°
Maximum altitude 19:16:34 27° 218° (SW) 4,477 12.1 68.4°
Drops below altitude 10° 19:29:39 10° 169° (S) 5,568 12.4 68.4°
Sets 19:34:45 0° 158° (SSE) 6,362 12.5 68.3°
